DW7718 North Shields UK current weather conditions

sailwx.info

Wind from 338

Air temperature 18.3° C
Dewpoint 12.8° C

Last reported at 2019-Jun-27 11:00 UTC.
Time now 2019-Jun-27 11:21 UTC

Location: N 55°02' W 001°27'.
View on Google Maps.

See reports from other nearby stations

  
Tides and Currents Weather Stations Pressure Air Temp Water Temp Dewpoint Dewpoint Depression Visibility Wind Speed Wind Dir Waves Ship Positions
date/time (UTC)wind fromknots sea level pressurealtimeterstation pressurevisibilityair tempwater tempwave heightnotes
2019-Jun-27 11:00 338 18.3
2019-Jun-27 10:45 332 18.3
2019-Jun-27 10:30 278 18.9
2019-Jun-27 10:16 218 18.9
2019-Jun-27 10:00 023 18.9
2019-Jun-27 09:45 150 18.9
2019-Jun-27 09:30 123 18.9
2019-Jun-27 09:15 115 18.3
2019-Jun-27 09:00 115 18.3
2019-Jun-27 08:45 271 18.9
2019-Jun-27 08:30 139 20.0
2019-Jun-27 08:15 260 20.0
2019-Jun-27 08:00 263 18.9
2019-Jun-27 07:46 263 17.8
2019-Jun-27 07:30 262 17.2
2019-Jun-27 07:15 260 16.7
2019-Jun-27 07:01 316 15.0
2019-Jun-27 06:46 281 14.4
2019-Jun-27 06:31 263 13.3
2019-Jun-27 06:16 259 12.2
2019-Jun-27 06:01 309 10.6
2019-Jun-27 05:46 287 10.0
2019-Jun-27 05:32 287 9.4
2019-Jun-27 05:16 287 8.9
2019-Jun-27 05:01 259 8.9
2019-Jun-27 04:01 248 7.8
2019-Jun-27 03:46 280 8.3
2019-Jun-27 03:30 266 7.8
2019-Jun-27 03:01 241 7.8
2019-Jun-27 02:45 242 7.8
2019-Jun-27 02:30 241 7.8
2019-Jun-27 02:15 241 7.8
2019-Jun-27 02:00 242 7.8
2019-Jun-27 01:30 242 8.3
2019-Jun-27 01:16 242 8.3
2019-Jun-27 01:00 242 8.3
2019-Jun-27 00:45 242 8.3
2019-Jun-27 00:30 242 8.3
2019-Jun-27 00:15 241 7.8
2019-Jun-27 00:00 241 7.8
2019-Jun-26 23:45 242 8.3
2019-Jun-26 23:30 242 8.3
2019-Jun-26 23:15 242 8.9
2019-Jun-26 23:02 241 8.9
2019-Jun-26 12:01 064 1 gusting 5 13.9
2019-Jun-26 11:45 015 0 gusting 5 13.3
2019-Jun-26 11:30 006 0 gusting 5 13.3
2019-Jun-26 11:15 034 13.3
2019-Jun-26 11:00 279 1 gusting 6 13.3
2019-Jun-26 10:45 354 0 gusting 6 12.8
2019-Jun-26 10:30 039 1 gusting 5 12.2
2019-Jun-26 10:15 345 1 gusting 4 12.2
2019-Jun-26 09:47 316 1 gusting 4 11.7
2019-Jun-26 09:32 030 12.2
2019-Jun-26 09:16 075 1 gusting 5 11.7
2019-Jun-26 09:02 121 1 gusting 5 11.7
2019-Jun-26 08:47 061 0 gusting 5 11.7
2019-Jun-26 08:32 352 0 gusting 4 11.7
2019-Jun-26 08:16 042 0 gusting 5 11.1
2019-Jun-26 08:01 059 0 gusting 4 11.1
2019-Jun-26 05:01 316 0 gusting 6 10.6
2019-Jun-26 04:45 023 0 gusting 4 10.6
2019-Jun-26 04:30 316 10.6
2019-Jun-26 04:15 039 1 gusting 5 10.6
2019-Jun-26 04:01 023 0 gusting 6 10.6
2019-Jun-26 03:45 326 1 gusting 6 10.6
2019-Jun-26 03:31 345 1 gusting 7 10.6
2019-Jun-26 03:15 353 10.6
2019-Jun-26 03:00 314 1 gusting 6 10.6
2019-Jun-26 02:45 010 1 gusting 7 10.6
2019-Jun-26 02:30 316 2 gusting 6 10.6
2019-Jun-26 02:15 10.6
2019-Jun-26 02:00 265 1 gusting 6 10.6
2019-Jun-26 01:45 321 10.6
2019-Jun-26 01:30 312 0 gusting 6 10.6
2019-Jun-26 01:15 328 1 gusting 6 11.1
2019-Jun-26 01:00 313 0 gusting 6 11.1
2019-Jun-26 00:48 125 1 gusting 8 11.1
2019-Jun-26 00:31 316 0 gusting 6 11.1
2019-Jun-26 00:16 333 1 gusting 7 11.1
2019-Jun-26 00:02 006 0 gusting 6 11.1
2019-Jun-25 23:46 015 1 gusting 7 11.1
2019-Jun-25 23:31 338 1 gusting 5 11.1
2019-Jun-25 23:17 009 0 gusting 6 11.1
2019-Jun-25 23:01 299 1 gusting 8 11.1
2019-Jun-25 22:46 312 2 gusting 6 11.1
2019-Jun-25 22:31 340 1 gusting 7 11.1
2019-Jun-25 22:17 335 1 gusting 6 11.1
2019-Jun-25 22:01 009 1 gusting 6 11.1
2019-Jun-25 21:45 316 1 gusting 6 11.1
2019-Jun-25 21:31 304 0 gusting 6 11.1
2019-Jun-25 21:01 345 1 gusting 5 11.7
2019-Jun-25 20:45 355 1 gusting 6 11.7
2019-Jun-25 20:31 331 1 gusting 6 11.7
2019-Jun-25 20:16 328 2 gusting 6 11.7
2019-Jun-25 20:00 210 3 gusting 6 11.7
2019-Jun-25 19:45 349 2 gusting 7 11.7
2019-Jun-25 19:30 345 0 gusting 5 11.7
2019-Jun-25 19:16 320 3 gusting 8 11.7
2019-Jun-25 19:00 310 2 gusting 7 11.7
2019-Jun-25 18:45 311 1 gusting 6 11.7
2019-Jun-25 18:31 318 1 gusting 8 11.7
2019-Jun-25 18:15 328 1 gusting 6 11.7
2019-Jun-25 18:00 033 2 gusting 7 11.7
2019-Jun-25 17:45 001 2 gusting 8 11.7
2019-Jun-25 17:30 323 1 gusting 8 12.2
2019-Jun-25 17:15 318 3 gusting 7 12.2
2019-Jun-25 17:00 313 1 gusting 11 12.2
2019-Jun-25 16:45 336 1 gusting 7 12.2
2019-Jun-25 16:30 284 1 gusting 8 12.2
2019-Jun-25 16:16 011 3 gusting 10 12.2
2019-Jun-25 16:01 335 1 gusting 6 12.2
2019-Jun-25 15:46 025 2 gusting 7 12.2
2019-Jun-25 15:32 054 1 gusting 7 12.2
2019-Jun-25 15:17 049 2 gusting 7 12.2